Location: Newark
(54.2500°N, 9.1833°E)
Time: 09:47:53
(UTC+00:00)

SR - Visible Passes

Search period start: 07 December 2019 00:00
Search period end: 17 December 2019 00:00
Orbit: 573 x 882 km, 66.7° (Epoch: 06 December)

Date Brightness Start Highest point End Pass type
(mag) Time Alt. Az. Time Alt. Az. Time Alt. Az.
07 Dec ? 16:01:59 10° NW 16:07:30 37° NNE 16:12:55 10° E visible
07 Dec ? 17:44:15 10° NW 17:50:14 82° SW 17:53:19 29° SSE visible
07 Dec ? 19:27:21 10° WNW 19:31:34 21° WSW 19:32:48 19° SW visible
08 Dec ? 16:54:31 10° NW 17:00:29 68° NE 17:06:09 10° SE visible
08 Dec ? 18:37:05 10° NW 18:42:20 34° WSW 18:45:39 19° SSW visible
09 Dec ? 16:04:48 10° NW 16:10:35 48° NE 16:16:11 10° ESE visible
09 Dec ? 17:47:07 10° NW 17:52:54 55° WSW 17:58:25 10° SSE visible
09 Dec ? 19:31:31 10° WNW 19:33:47 12° W 19:36:00 10° SW visible
10 Dec ? 16:57:19 10° NW 17:03:18 85° SW 17:09:02 10° SE visible
10 Dec ? 18:40:21 10° WNW 18:44:42 22° WSW 18:48:53 10° SSW visible
11 Dec ? 16:07:35 10° NW 16:13:33 66° NE 16:19:16 10° SE visible
11 Dec ? 17:50:07 10° NW 17:55:26 35° WSW 18:00:30 10° S visible
12 Dec ? 17:00:11 10° NW 17:06:00 57° WSW 17:11:31 10° SSE visible
12 Dec ? 18:44:24 10° WNW 18:46:54 13° WSW 18:49:23 10° SW visible
13 Dec ? 16:10:23 10° NW 16:16:22 88° SW 16:22:05 10° SE visible
13 Dec ? 17:53:22 10° WNW 17:57:48 23° WSW 18:02:04 10° SSW visible
14 Dec ? 06:48:44 10° SE 06:52:12 17° ESE 06:55:45 10° ENE visible
14 Dec ? 17:03:10 10° NW 17:08:31 37° WSW 17:13:38 10° S visible
15 Dec ? 16:13:15 10° NW 16:19:05 59° WSW 16:24:36 10° SSE visible
15 Dec ? 17:57:16 10° WNW 18:00:01 14° WSW 18:02:42 10° SW visible
16 Dec ? 06:49:50 10° SSE 06:54:29 27° ESE 06:59:19 10° NE visible
16 Dec ? 17:06:23 10° WNW 17:10:54 23° WSW 17:15:15 10° SSW visible
